Flag for Switzerland Weather past 2 weeks in Kloten, Zurich, Switzerland

59 °F

Partly sunny.

Feels Like: 60 °F
Forecast: 40 / 63 °F
Wind: 3 mph from Northwest

Location: Zurich-Kloten

Current Time: Oct 8, 2015 at 6:21:38 PM

Latest Report: Oct 8, 2015 at 5:50 PM

Visibility: N/A

Pressure: 30.12 "Hg

Humidity: 63%

Dew point: 46 °F

Location of KlotenLocation

Historic Weather in Kloten — Graph


Kloten temperature yesterday

Maximum temperature yesterday: 61 °F (at 3:50 PM)
Minimum temperature yesterday: 54 °F (at 10:50 PM)
Average temperature yesterday: 57 °F

Past Weeks' High & Low Weather Summary

High70 °F (Oct 3, 3:20 PM)100% (Sep 23, 9:20 PM)30.45 "Hg (Sep 23, 9:20 PM)
Low37 °F (Oct 1, 4:20 AM)40% (Oct 3, 3:50 PM)29.74 "Hg (Oct 6, 11:50 AM)
Average54 °F77%30.15 "Hg
* Reported Sep 23 5:20 PM — Oct 8 5:20 PM, Kloten, Weather by CustomWeather, © 2015

Note: Actual official high and low records may vary slightly from our data, if they occured in-between our weather recording intervals... More about our weather records


Kloten weather history for previous 24 hours

Time TempWeatherWind HumidityBarometerVisibility
5:20 PM
Thu, Oct 8
59 °FPartly sunny.3 mph63%30.12 "HgN/A
4:50 PM59 °FPartly sunny.2 mph63%30.12 "HgN/A
4:20 PM61 °FPartly sunny.3 mph59%30.12 "HgN/A
3:50 PM59 °FPartly sunny.3 mph63%30.12 "HgN/A
3:20 PM59 °FPartly sunny.2 mph63%30.12 "HgN/A
2:50 PM59 °FBroken clouds.1 mph72%30.12 "HgN/A
2:20 PM59 °FPartly sunny.3 mph68%30.12 "HgN/A
1:50 PM59 °FBroken clouds.2 mph63%30.12 "HgN/A
1:20 PM59 °FBroken clouds.5 mph63%30.12 "HgN/A
12:50 PM59 °FBroken clouds.3 mph63%30.12 "HgN/A
12:20 PM57 °FPartly sunny.2 mph72%30.12 "HgN/A
11:50 AM57 °FPartly sunny.2 mph77%30.12 "HgN/A
11:20 AM55 °FPartly sunny.1 mph77%30.12 "HgN/A
10:50 AM55 °FPartly sunny.3 mph77%30.12 "HgN/A
10:20 AM54 °FSprinkles. Broken clouds.3 mph88%30.12 "HgN/A
9:50 AM55 °FBroken clouds.No wind88%30.12 "HgN/A
9:20 AM54 °FBroken clouds.1 mph94%30.12 "HgN/A
8:50 AM52 °FBroken clouds.3 mph94%30.12 "HgN/A
8:20 AM50 °FPartly cloudy.2 mph100%30.09 "HgN/A
7:50 AM50 °FPassing clouds.1 mph100%30.09 "HgN/A
7:20 AM52 °FPartly cloudy.1 mph94%30.09 "HgN/A
6:50 AM52 °FPassing clouds.2 mph94%30.09 "HgN/A
5:20 AM52 °FPassing clouds.1 mph94%30.09 "HgN/A
4:50 AM52 °FPassing clouds.2 mph94%30.09 "HgN/A
4:20 AM52 °FPassing clouds.5 mph94%30.09 "HgN/A
3:50 AM52 °FPassing clouds.6 mph94%30.09 "HgN/A
3:20 AM52 °FPartly cloudy.2 mph94%30.09 "HgN/A
2:50 AM52 °FPartly cloudy.3 mph94%30.12 "HgN/A
1:50 AM52 °FPassing clouds.2 mph94%30.09 "HgN/A
1:20 AM52 °FPartly cloudy.2 mph94%30.09 "HgN/A
12:50 AM52 °FPassing clouds.No wind88%30.12 "HgN/A
12:20 AM54 °FPassing clouds.No wind82%30.12 "HgN/A
11:50 PM
Wed, Oct 7
54 °FPassing clouds.No wind82%30.09 "HgN/A
11:20 PM54 °FPassing clouds.2 mph82%30.09 "HgN/A
10:50 PM54 °FPassing clouds.3 mph82%30.09 "HgN/A
10:20 PM55 °FPassing clouds.5 mph77%30.09 "HgN/A
9:50 PM55 °FPassing clouds.5 mph77%30.09 "HgN/A
9:20 PM55 °FPassing clouds.5 mph77%30.09 "HgN/A
8:50 PM55 °FPassing clouds.7 mph77%30.09 "HgN/A
8:20 PM55 °FPassing clouds.3 mph82%30.07 "HgN/A
7:50 PM55 °FBroken clouds.2 mph82%30.07 "HgN/A
7:20 PM57 °FBroken clouds.7 mph77%30.07 "HgN/A
6:50 PM57 °FPartly sunny.5 mph77%30.04 "HgN/A
6:20 PM59 °FPartly sunny.5 mph72%30.04 "HgN/A
Weather by CustomWeather, © 2015

See weather overviewHow to use our weather pages